sat.trackr.live / text

‹ back to catalog

STARLINK-35896

NORAD 66824 · 2025-280D

PAYLOAD ACTIVE UNKNOWN

§ Identity

Operator
Country
US
Launch date
2025-12-02
Launch site
AFWTR
Launch vehicle
Mass (kg)
RCS (m²)

Purposes: comms

External: N2YO · Heavens-Above · Gunter

§ Orbital elements

Epoch: 2026-05-25T03:06:35.643744Z

Period
96.11 min
Inclination
70.0004°
Eccentricity
0.0003256
Mean motion
14.98334071 rev/d
Perigee alt
569.8 km
Apogee alt
574.3 km
Semi-major
6,950.2 km
B*
3.5734e-4
RAAN
141.8165°
Arg perigee
270.6808°
Mean anomaly
89.3978°
Rev number
2,752

§ Raw data

STARLINK-358961 66824U 25280D   26145.12957921  .00004174  00000+0  35734-3 0  99972 66824  70.0004 141.8165 0003256 270.6808  89.3978 14.98334071 27522

JSON: /api/v1/satellites/66824 · /tle

For live sub-satellite position, see the globe view (requires WebGL).

§ Visibility from observer

Set your observer location to see the next 7 days of passes ≥ 10°. The values pass through the URL so the page stays shareable.

No JS? Fill the form by hand. The geolocation button needs JavaScript.